Quillayute, WA

11:18 PM PDT on March 24, 2017 (GMT -0700)
Quillayute

Weather History for KUIL - August, 2012

Change the Weather History Date:

Saturday, August 18, 2012

  Actual Average Record
Temperature  
Mean Temperature 60 °F 60 °F  
Max Temperature 62 °F 69 °F 96 °F (2016)
Min Temperature 57 °F 51 °F 36 °F (1973)
Degree Days  
Heating Degree Days 5 6  
Month to date heating degree days 96  
Since 1 June heating degree days 584  
Since 1 July heating degree days 290  
Cooling Degree Days 0 0  
Month to date cooling degree days 0  
Year to date cooling degree days 11  
Since 1 June cooling degree days 10  
Growing Degree Days 10 (Base 50)    
Moisture  
Dew Point 57 °F    
Average Humidity 91    
Maximum Humidity 94    
Minimum Humidity 82    
Precipitation  
Precipitation 0.02 in 0.09 in 0.66 in (1995)
Month to date precipitation 1.23  
Year to date precipitation 55.46  
Sea Level Pressure  
Sea Level Pressure 29.98 in    
Wind  
Wind Speed 1 mph (WSW)    
Max Wind Speed 8 mph    
Max Gust Speed 10 mph    
Visibility 5 miles    
Events Rain , Thunderstorm    
T = Trace of Precipitation, MM = Missing Value Source: NWS Daily Summary

Daily Weather History Graph

Daily Weather History Graph

Search for Another Location

Airport or City:

Trip Planner

Search our weather history database for the weather conditions in past years. The results will help you decide how hot, cold, wet, or windy it might be!

Date:

Astronomy

Aug. 18, 2012 Rise Set
Actual Time 6:18 AM PDT 8:24 PM PDT
Civil Twilight 5:44 AM PDT 8:58 PM PDT
Nautical Twilight 5:02 AM PDT 9:39 PM PDT
Astronomical Twilight 4:15 AM PDT 10:26 PM PDT
Moon 7:43 AM PDT (8/18) 8:30 PM PDT (8/18)
Length of Visible Light 15h 13m
Length of Day
14h 06m
New Moon, 2% of the Moon is Illuminated
Aug 18
New Moon
Aug 24
First Quarter
Aug 31
Full
Sep 8
Last Quarter
Sep 15
New

Hourly Weather History & Observations

Time (PDT) Temp. Dew Point Humidity Pressure Visibility Wind Dir Wind Speed Gust Speed Precip Events Conditions
12:09 AM 57.2 °F 55.4 °F 94% 30.00 in 1.8 mi Calm Calm - N/A   Overcast
12:53 AM 57.9 °F 55.9 °F 93% 30.00 in 1.8 mi Calm Calm - N/A   Overcast
1:02 AM 57.2 °F 55.4 °F 94% 30.00 in 2.5 mi Calm Calm - N/A   Overcast
1:24 AM 57.2 °F 55.4 °F 94% 30.00 in 1.8 mi Calm Calm - N/A   Overcast
1:53 AM 57.9 °F 55.9 °F 93% 30.00 in 2.0 mi Calm Calm - 0.01 in   Overcast
2:02 AM 57.2 °F 55.4 °F 94% 30.00 in 1.8 mi Calm Calm - N/A   Overcast
2:10 AM 59.0 °F 57.2 °F 94% 30.00 in 2.5 mi Calm Calm - N/A   Overcast
2:53 AM 59.0 °F 55.4 °F 88% 30.00 in 2.5 mi Calm Calm - N/A   Overcast
3:39 AM 59.0 °F 57.2 °F 94% 29.99 in 3.0 mi Calm Calm - N/A   Overcast
3:53 AM 59.0 °F 55.9 °F 90% 29.99 in 2.5 mi Calm Calm - N/A   Overcast
4:02 AM 59.0 °F 55.4 °F 88% 29.99 in 3.0 mi Calm Calm - N/A   Overcast
4:10 AM 59.0 °F 57.2 °F 94% 30.00 in 2.5 mi Calm Calm - N/A   Overcast
4:26 AM 59.0 °F 57.2 °F 94% 29.99 in 4.0 mi Calm Calm - N/A   Overcast
4:53 AM 59.0 °F 57.2 °F 94% 29.99 in 3.0 mi Calm Calm - N/A   Overcast
5:18 AM 59.0 °F 57.2 °F 94% 29.99 in 2.5 mi Calm Calm - N/A   Overcast
5:33 AM 59.0 °F 57.2 °F 94% 29.99 in 2.0 mi Calm Calm - N/A   Overcast
5:53 AM 59.0 °F 57.0 °F 93% 29.99 in 2.0 mi Calm Calm - N/A   Overcast
6:37 AM 59.0 °F 57.2 °F 94% 29.98 in 3.0 mi Calm Calm - N/A   Overcast
6:53 AM 59.0 °F 57.0 °F 93% 29.97 in 3.0 mi ENE 3.5 mph - N/A   Overcast
6:56 AM 59.0 °F 57.2 °F 94% 29.97 in 2.5 mi ENE 3.5 mph - N/A   Overcast
7:09 AM 59.0 °F 57.2 °F 94% 29.97 in 4.0 mi Calm Calm - N/A   Overcast
7:21 AM 59.0 °F 57.2 °F 94% 29.97 in 2.5 mi Calm Calm - N/A   Overcast
7:37 AM 59.0 °F 57.2 °F 94% 29.98 in 4.0 mi Calm Calm - N/A   Overcast
7:50 AM 59.0 °F 57.2 °F 94% 29.98 in 5.0 mi Calm Calm - N/A   Overcast
7:53 AM 59.0 °F 57.0 °F 93% 29.98 in 4.0 mi Calm Calm - N/A   Overcast
8:23 AM 60.8 °F 57.2 °F 88% 29.98 in 7.0 mi Calm Calm - N/A   Overcast
8:42 AM 60.8 °F 57.2 °F 88% 29.98 in 5.0 mi Calm Calm - N/A   Overcast
8:53 AM 61.0 °F 57.9 °F 90% 29.99 in 6.0 mi Calm Calm - N/A   Overcast
9:06 AM 60.8 °F 57.2 °F 88% 29.99 in 2.0 mi Variable 3.5 mph - 0.00 in Rain Light Rain
9:16 AM 60.8 °F 57.2 °F 88% 29.99 in 6.0 mi South 3.5 mph - 0.00 in   Overcast
9:53 AM 62.1 °F 57.9 °F 86% 29.98 in 10.0 mi Calm Calm - 0.00 in   Overcast
10:53 AM 61.0 °F 57.0 °F 87% 30.00 in 10.0 mi SW 6.9 mph - N/A   Overcast
11:53 AM 61.0 °F 57.0 °F 87% 30.00 in 10.0 mi Calm Calm - N/A   Overcast
12:53 PM 61.0 °F 55.9 °F 83% 29.99 in 8.0 mi Calm Calm - N/A   Overcast
1:53 PM 61.0 °F 57.9 °F 90% 30.01 in 8.0 mi Calm Calm - 0.00 in Rain Light Rain
2:36 PM 60.8 °F 57.2 °F 88% 30.01 in 10.0 mi SW 3.5 mph - 0.00 in   Overcast
2:48 PM 60.8 °F 57.2 °F 88% 30.00 in 10.0 mi SW 4.6 mph - 0.00 in Rain Light Rain
2:53 PM 60.1 °F 57.0 °F 90% 30.00 in 10.0 mi Calm Calm - 0.00 in   Overcast
3:53 PM 62.1 °F 57.0 °F 84% 29.98 in 10.0 mi Calm Calm - 0.00 in   Overcast
4:53 PM 61.0 °F 57.9 °F 90% 29.96 in 10.0 mi Variable 3.5 mph - 0.01 in   Overcast
5:21 PM 60.8 °F 57.2 °F 88% 29.95 in 10.0 mi NNW 4.6 mph - N/A   Overcast
5:53 PM 61.0 °F 57.0 °F 87% 29.96 in 9.0 mi NNW 4.6 mph - N/A   Overcast
6:44 PM 60.8 °F 57.2 °F 88% 29.92 in 6.0 mi North 3.5 mph - 0.00 in Rain Light Rain
6:53 PM 60.1 °F 57.0 °F 90% 29.92 in 8.0 mi Calm Calm - 0.00 in Rain Light Rain
7:34 PM 60.8 °F 55.4 °F 82% 29.93 in 8.0 mi West 3.5 mph - 0.00 in   Mostly Cloudy
7:53 PM 60.1 °F 55.9 °F 86% 29.94 in 7.0 mi WSW 5.8 mph - 0.00 in   Mostly Cloudy
8:06 PM 59.0 °F 55.4 °F 88% 29.94 in 7.0 mi Calm Calm - N/A   Scattered Clouds
8:20 PM 59.0 °F 55.4 °F 88% 29.94 in 7.0 mi West 4.6 mph - N/A   Mostly Cloudy
8:50 PM 59.0 °F 55.4 °F 88% 29.95 in 8.0 mi Calm Calm - N/A Thunderstorm Overcast
8:53 PM 59.0 °F 55.9 °F 90% 29.96 in 8.0 mi Variable 3.5 mph - N/A Thunderstorm Overcast
9:05 PM 59.0 °F 55.4 °F 88% 29.96 in 8.0 mi Calm Calm - N/A   Overcast
9:53 PM 59.0 °F 55.9 °F 90% 29.97 in 6.0 mi Calm Calm - N/A   Overcast
10:18 PM 57.2 °F 55.4 °F 94% 29.97 in 7.0 mi Calm Calm - N/A   Overcast
10:53 PM 57.9 °F 55.9 °F 93% 29.97 in 4.0 mi WSW 3.5 mph - N/A   Overcast
11:02 PM 57.2 °F 55.4 °F 94% 29.97 in 1.8 mi SW 3.5 mph - N/A   Overcast
11:18 PM 57.2 °F 55.4 °F 94% 29.97 in 1.2 mi WSW 3.5 mph - N/A   Overcast
11:31 PM 57.2 °F 55.4 °F 94% 29.98 in 0.8 mi SW 3.5 mph - N/A   Overcast
11:39 PM 57.2 °F 55.4 °F 94% 29.98 in 1.2 mi SW 4.6 mph - N/A   Overcast
11:46 PM 57.2 °F 55.4 °F 94% 29.98 in 1.8 mi Calm Calm - N/A   Overcast
11:53 PM 57.9 °F 55.9 °F 93% 29.98 in 2.5 mi Calm Calm - N/A   Overcast